QPF
0.00 0.00 0.00 0.00 0.01 0.00 0.00 0.00 0.00 0.00 0.00 0.02 0.00 0.00 0.00 0.00 0.00 0.00 0.00 0.00 0.03 0.02 0.01 0.01 0.01 0.00 0.00 0.00 0.00 0.00 0.01 0.00 0.02
0.00 0.00 0.00 0.00 0.00 0.01 0.01 0.00 0.00 0.00 0.00 0.00 0.00 0.00 0.00 0.00 0.00 0.00 0.00 0.00 0.00 0.00 0.01 0.04 0.03 0.00 0.00 0.00 0.00 0.00 0.02 0.01 0.04
0.00 0.00 0.00 0.00 0.00 0.00 0.01 0.02 0.00 0.00 0.00 0.00 0.01 0.07 0.00 0.00 0.00 0.00 0.00 0.00 0.00 0.00 0.01 0.03 0.01 0.00 0.00 0.02 0.04 0.01 0.00 0.01 0.01
0.00 0.00 0.00 0.00 0.00 0.00 0.01 0.02 0.00 0.00 0.00 0.00 0.00 0.00 0.01 0.01 0.01 0.00 0.00 0.00 0.00 0.00 0.00 0.01 0.00 0.00 0.00 0.01 0.01 0.01 0.00 0.00 0.01
0.00 0.00 0.00 0.00 0.00 0.00 0.00 0.00 0.00 0.00 0.00 0.00 0.00 0.02 0.00 0.00 0.01 0.01 0.00 0.00 0.00 0.00 0.00 0.00 0.01 0.01 0.00 0.03 0.03 0.01 0.01 0.03 0.02
0.00 0.00 0.00 0.00 0.00 0.00 0.00 0.00 0.00 0.00 0.00 0.00 0.01 0.01 0.01 0.00 0.00 0.01 0.00 0.00 0.00 0.00 0.00 0.00 0.01 0.02 0.00 0.02 0.02 0.01 0.01 0.05 0.04
0.00 0.00 0.00 0.00 0.00 0.00 0.00 0.00 0.00 0.00 0.00 0.00 0.00 0.00 0.00 0.00 0.00 0.01 0.00 0.00 0.00 0.00 0.00 0.00 0.00 0.00 0.00 0.00 0.00 0.00 0.00 0.01 0.01
0.00 0.00 0.00 0.00 0.00 0.00 0.00 0.00 0.00 0.00 0.00 0.00 0.00 0.00 0.00 0.00 0.00 0.02 0.01 0.01 0.00 0.00 0.00 0.00 0.00 0.00 0.00 0.00 0.00 0.00 0.00 0.00 0.00
0.00 0.00 0.00 0.00 0.00 0.00 0.00 0.00 0.00 0.00 0.00 0.00 0.00 0.00 0.00 0.00 0.00 0.00 0.02 0.04 0.02 0.00 0.00 0.00 0.00 0.00 0.00 0.00 0.00 0.00 0.00 0.00 0.00
0.00 0.00 0.00 0.00 0.00 0.00 0.00 0.00 0.00 0.00 0.00 0.00 0.00 0.01 0.01 0.01 0.00 0.00 0.00 0.03 0.03 0.00 0.00 0.01 0.00 0.00 0.00 0.00 0.00 0.00 0.00 0.00 0.00
0.00 0.00 0.00 0.00 0.00 0.00 0.00 0.00 0.00 0.00 0.00 0.00 0.00 0.00 0.00 0.00 0.00 0.00 0.00 0.01 0.00 0.02 0.05 0.02 0.01 0.02 0.03 0.03 0.00 0.01 0.00 0.00 0.01
0.00 0.00 0.00 0.00 0.00 0.00 0.00 0.00 0.00 0.00 0.00 0.00 0.00 0.00 0.00 0.00 0.01 0.07 0.04 0.00 0.01 0.02 0.01 0.01 0.00 0.01 0.00 0.00 0.01 0.03 0.07 0.10 0.04
0.00 0.00 0.00 0.00 0.00 0.00 0.00 0.00 0.00 0.00 0.00 0.00 0.00 0.00 0.00 0.00 0.00 0.00 0.00 0.04 0.03 0.01 0.00 0.00 0.01 0.03 0.08 0.08 0.03 0.09 0.14 0.20 0.10
0.00 0.00 0.00 0.00 0.00 0.00 0.00 0.00 0.00 0.00 0.00 0.00 0.00 0.00 0.00 0.00 0.00 0.00 0.00 0.00 0.01 0.02 0.03 0.03 0.04 0.02 0.04 0.05 0.03 0.07 0.17 0.26 0.26
0.00 0.00 0.00 0.00 0.00 0.00 0.00 0.00 0.00 0.00 0.00 0.00 0.00 0.00 0.00 0.00 0.00 0.00 0.00 0.00 0.00 0.00 0.00 0.01 0.04 0.06 0.08 0.08 0.08 0.10 0.10 0.09 0.09
0.00 0.00 0.00 0.00 0.00 0.00 0.00 0.00 0.00 0.00 0.00 0.00 0.00 0.00 0.00 0.00 0.00 0.00 0.00 0.00 0.00 0.00 0.00 0.00 0.00 0.00 0.00 0.02 0.03 0.02 0.03 0.05 0.06
0.00 0.01 0.00 0.00 0.00 0.00 0.00 0.00 0.00 0.00 0.00 0.00 0.00 0.00 0.00 0.00 0.00 0.00 0.00 0.00 0.00 0.00 0.00 0.00 0.00 0.00 0.00 0.00 0.00 0.00 0.00 0.00 0.00
0.01 0.03 0.00 0.00 0.00 0.00 0.00 0.00 0.00 0.00 0.00 0.00 0.00 0.00 0.00 0.00 0.00 0.00 0.00 0.00 0.00 0.00 0.00 0.00 0.00 0.00 0.00 0.00 0.00 0.00 0.00 0.00 0.00
0.08 0.06 0.00 0.00 0.00 0.00 0.00 0.00 0.00 0.00 0.00 0.00 0.00 0.00 0.00 0.00 0.00 0.00 0.00 0.00 0.00 0.00 0.00 0.00 0.00 0.00 0.00 0.00 0.00 0.00 0.00 0.00 0.00
0.05 0.01 0.00 0.00 0.00 0.00 0.00 0.00 0.00 0.00 0.00 0.00 0.00 0.00 0.00 0.00 0.00 0.00 0.00 0.00 0.00 0.00 0.00 0.00 0.00 0.00 0.00 0.00 0.00 0.00 0.00 0.00 0.00
MSLP
1007.81 1008.55 1009.12 1010.00 1010.73 1011.29 1011.62 1011.84 1012.07 1012.42 1013.04 1013.68 1013.94 1014.10 1014.47 1014.75 1015.00 1015.37 1015.62 1015.99 1016.38 1016.36 1016.51 1016.38 1016.39 1016.39 1016.56 1016.75 1016.91 1017.07 1017.00 1017.31 1017.37
1007.69 1008.33 1008.79 1009.45 1010.27 1010.67 1010.82 1011.04 1011.51 1011.94 1012.52 1013.13 1013.39 1013.71 1014.02 1014.39 1014.71 1015.06 1015.37 1015.62 1015.87 1016.01 1016.03 1016.27 1016.56 1016.32 1016.46 1016.34 1016.45 1016.50 1016.99 1017.21 1017.36
1007.42 1008.05 1008.58 1009.17 1009.76 1010.09 1010.03 1010.13 1010.85 1011.71 1012.15 1012.48 1012.92 1013.27 1013.53 1013.75 1014.07 1014.31 1014.59 1014.97 1015.36 1015.57 1015.78 1015.90 1015.95 1016.14 1016.26 1016.23 1016.40 1016.53 1016.80 1016.88 1017.02
1007.11 1007.47 1007.96 1008.58 1009.13 1009.38 1009.68 1010.49 1011.15 1011.49 1011.96 1012.36 1012.54 1012.54 1012.86 1013.16 1013.52 1013.82 1014.12 1014.43 1014.48 1014.79 1015.01 1015.29 1015.59 1015.62 1015.88 1016.09 1016.16 1016.22 1016.55 1016.69 1016.80
1006.80 1007.23 1007.79 1008.49 1009.17 1009.63 1009.94 1010.44 1010.98 1011.25 1011.74 1012.02 1011.90 1012.21 1012.45 1012.67 1012.79 1013.25 1013.50 1013.76 1014.22 1014.36 1014.47 1014.71 1014.90 1015.08 1015.46 1015.79 1016.04 1016.15 1016.29 1016.47 1016.44
1006.81 1007.36 1007.91 1008.58 1009.29 1009.83 1010.20 1010.35 1010.79 1011.08 1011.23 1011.41 1011.47 1012.02 1012.36 1012.40 1012.61 1012.76 1012.98 1013.19 1013.56 1014.03 1014.32 1014.28 1014.47 1014.82 1015.04 1015.37 1015.68 1016.13 1016.10 1016.12 1016.19
1006.87 1007.32 1007.87 1008.49 1009.34 1009.62 1010.02 1010.04 1010.30 1010.71 1011.07 1011.39 1011.60 1011.90 1012.12 1012.29 1012.66 1012.52 1012.57 1012.82 1013.01 1013.43 1013.76 1014.05 1014.14 1014.21 1014.59 1014.84 1015.08 1015.33 1015.55 1015.71 1015.78
1006.75 1007.23 1007.97 1008.48 1009.10 1009.55 1009.87 1010.06 1010.21 1010.50 1010.90 1011.21 1011.45 1011.76 1011.91 1012.25 1012.39 1012.61 1012.51 1012.54 1012.65 1012.54 1012.94 1013.45 1013.68 1013.94 1014.21 1014.52 1014.75 1014.82 1014.99 1015.09 1015.28
1006.99 1007.38 1007.88 1008.36 1008.73 1009.21 1009.86 1010.07 1010.21 1010.45 1010.71 1010.98 1011.24 1011.39 1011.34 1011.86 1012.20 1012.23 1012.39 1012.45 1012.79 1012.54 1012.42 1012.80 1013.22 1013.43 1013.57 1013.80 1013.99 1014.04 1014.20 1014.44 1014.65
1006.53 1007.02 1007.53 1008.15 1008.74 1009.21 1009.69 1010.13 1010.28 1010.45 1010.62 1010.88 1011.10 1011.23 1011.42 1011.56 1011.76 1011.97 1012.10 1012.29 1012.29 1012.32 1012.56 1012.59 1012.84 1012.96 1013.17 1013.19 1013.26 1013.39 1013.54 1013.74 1014.15
1006.20 1006.84 1007.06 1008.03 1008.77 1009.30 1009.65 1009.99 1010.34 1010.53 1010.76 1010.93 1011.19 1011.24 1011.26 1011.18 1011.45 1011.58 1011.78 1011.85 1011.80 1012.16 1012.31 1012.26 1012.50 1012.65 1012.76 1012.89 1012.65 1012.73 1012.87 1013.01 1013.41
1005.27 1005.86 1006.50 1007.48 1008.25 1008.94 1009.52 1009.82 1010.21 1010.52 1010.77 1010.93 1011.21 1011.27 1011.06 1011.11 1011.36 1011.44 1011.53 1011.58 1011.50 1011.53 1011.82 1011.87 1011.99 1012.00 1012.08 1012.27 1012.11 1012.05 1012.26 1012.47 1012.97
1005.23 1005.64 1006.09 1007.25 1008.00 1008.57 1009.16 1009.75 1010.17 1010.66 1010.97 1011.03 1011.17 1011.16 1011.14 1011.01 1011.00 1011.17 1011.23 1011.12 1010.92 1010.95 1010.91 1010.94 1011.26 1011.56 1011.65 1011.84 1011.98 1011.91 1012.02 1012.28 1012.62
1004.70 1005.43 1006.37 1007.41 1008.29 1008.91 1009.06 1009.43 1010.11 1010.82 1011.05 1011.12 1011.05 1011.07 1011.19 1011.38 1011.42 1011.36 1011.14 1011.17 1011.09 1011.02 1011.08 1010.98 1011.04 1011.22 1011.43 1011.81 1011.97 1011.84 1011.83 1012.03 1012.24
1004.74 1005.82 1007.06 1007.72 1008.30 1008.96 1009.42 1009.65 1010.13 1010.81 1011.19 1011.14 1011.04 1011.25 1011.51 1011.69 1011.57 1011.49 1011.50 1011.40 1011.36 1011.50 1011.57 1011.32 1010.93 1010.72 1010.47 1010.73 1011.52 1011.74 1011.87 1011.92 1012.07
1004.63 1005.68 1006.88 1007.59 1008.26 1008.94 1009.52 1009.78 1010.06 1010.69 1010.92 1011.02 1011.26 1011.61 1011.88 1012.10 1012.24 1012.30 1012.12 1011.94 1011.91 1012.01 1012.03 1011.78 1011.64 1011.59 1011.67 1011.86 1012.17 1011.82 1011.92 1011.97 1011.80
1004.81 1005.80 1006.84 1007.45 1008.35 1009.26 1009.79 1009.92 1010.21 1010.39 1010.71 1010.82 1011.09 1011.43 1011.94 1012.31 1012.66 1012.91 1012.87 1012.75 1012.67 1012.76 1012.75 1012.68 1012.43 1012.45 1012.65 1012.69 1012.65 1012.43 1012.26 1012.09 1011.64
1005.00 1005.82 1006.57 1007.19 1008.01 1008.77 1009.36 1009.79 1010.18 1010.44 1010.79 1010.94 1011.17 1011.42 1011.88 1012.36 1012.80 1013.06 1013.24 1013.39 1013.42 1013.37 1013.40 1013.31 1013.10 1013.24 1013.18 1013.13 1013.06 1012.85 1012.65 1012.34 1011.80
1006.36 1007.15 1006.80 1007.28 1007.81 1008.30 1009.12 1009.65 1009.94 1010.21 1010.55 1010.96 1011.30 1011.64 1011.93 1012.43 1013.00 1013.36 1013.57 1013.69 1013.78 1013.68 1013.44 1013.29 1013.41 1013.32 1013.25 1013.20 1013.21 1012.88 1012.51 1012.17 1011.81
1007.43 1007.33 1008.34 1007.61 1007.54 1008.03 1008.80 1009.38 1009.72 1010.13 1010.59 1010.98 1011.37 1011.66 1011.89 1012.17 1012.61 1012.96 1013.17 1013.39 1013.43 1013.52 1013.51 1013.48 1013.43 1013.47 1013.43 1013.34 1013.28 1013.10 1012.91 1012.72 1012.32
Thickness
5781 5774 5774 5765 5761 5759 5760 5762 5764 5763 5759 5754 5754 5756 5756 5756 5756 5753 5753 5754 5752 5755 5755 5759 5765 5767 5766 5767 5766 5764 5766 5767 5768
5777 5775 5772 5767 5764 5763 5766 5768 5765 5763 5759 5757 5757 5757 5759 5759 5758 5755 5753 5752 5753 5756 5759 5760 5758 5761 5764 5766 5766 5767 5763 5763 5765
5778 5776 5773 5770 5768 5768 5772 5773 5770 5765 5761 5761 5760 5760 5762 5763 5764 5764 5760 5759 5754 5755 5759 5760 5761 5759 5760 5762 5763 5764 5764 5764 5764
5780 5781 5779 5776 5773 5774 5774 5767 5762 5761 5760 5759 5762 5766 5765 5765 5764 5767 5768 5766 5765 5758 5762 5762 5762 5763 5763 5761 5762 5762 5762 5763 5762
5785 5782 5779 5776 5773 5769 5767 5765 5761 5762 5760 5761 5765 5766 5766 5765 5766 5767 5769 5769 5765 5764 5759 5763 5765 5767 5766 5763 5760 5760 5759 5759 5762
5780 5780 5778 5774 5769 5765 5763 5763 5761 5761 5763 5763 5765 5763 5761 5762 5764 5766 5768 5769 5768 5764 5762 5762 5762 5762 5763 5761 5760 5755 5758 5758 5760
5777 5777 5774 5773 5768 5766 5763 5766 5765 5763 5762 5762 5762 5758 5758 5758 5756 5763 5765 5766 5768 5765 5763 5764 5764 5764 5763 5764 5764 5762 5761 5760 5759
5775 5773 5770 5771 5768 5766 5764 5764 5764 5760 5758 5757 5757 5755 5753 5748 5745 5753 5760 5762 5764 5768 5766 5763 5764 5764 5762 5761 5762 5764 5763 5762 5761
5767 5767 5768 5770 5771 5768 5761 5758 5758 5757 5757 5755 5755 5754 5753 5746 5743 5749 5754 5756 5755 5763 5762 5761 5759 5761 5762 5762 5763 5765 5765 5763 5762
5769 5768 5767 5766 5765 5764 5759 5754 5754 5753 5753 5752 5750 5750 5747 5746 5746 5747 5749 5750 5752 5754 5756 5756 5756 5757 5757 5760 5762 5762 5763 5763 5761
5771 5769 5769 5762 5760 5758 5756 5753 5751 5749 5747 5745 5742 5743 5744 5747 5744 5743 5744 5745 5745 5746 5750 5752 5752 5754 5754 5755 5761 5761 5761 5762 5761
5777 5774 5771 5764 5761 5756 5752 5750 5747 5746 5744 5743 5739 5737 5740 5741 5740 5740 5740 5740 5743 5746 5746 5747 5750 5752 5752 5754 5758 5759 5758 5758 5758
5773 5772 5770 5761 5756 5754 5751 5747 5743 5738 5736 5736 5734 5734 5734 5736 5736 5736 5737 5739 5741 5741 5745 5745 5745 5745 5748 5748 5749 5752 5754 5753 5753
5774 5769 5761 5754 5748 5743 5744 5745 5739 5732 5729 5729 5731 5733 5732 5729 5727 5728 5732 5732 5733 5735 5735 5738 5740 5742 5739 5737 5738 5742 5746 5745 5746
5764 5755 5745 5745 5741 5739 5736 5736 5734 5727 5724 5725 5726 5723 5722 5721 5724 5726 5724 5726 5727 5726 5727 5731 5735 5733 5734 5736 5733 5734 5735 5737 5738
5758 5750 5743 5742 5737 5733 5730 5729 5728 5722 5721 5720 5719 5716 5713 5712 5711 5711 5714 5717 5719 5719 5720 5723 5724 5725 5723 5719 5722 5727 5727 5727 5730
5750 5744 5738 5736 5729 5723 5721 5722 5720 5718 5716 5715 5714 5712 5708 5704 5700 5699 5701 5704 5706 5707 5707 5709 5711 5711 5709 5709 5710 5714 5718 5721 5723
5743 5739 5735 5732 5728 5723 5719 5717 5713 5711 5707 5706 5705 5705 5703 5697 5694 5694 5693 5692 5693 5696 5694 5695 5700 5697 5697 5698 5700 5702 5702 5706 5712
5721 5718 5727 5725 5722 5721 5715 5711 5708 5706 5703 5699 5697 5696 5696 5691 5686 5685 5685 5686 5685 5684 5686 5687 5686 5687 5689 5690 5688 5690 5694 5696 5700
5696 5698 5700 5712 5717 5717 5712 5707 5704 5700 5698 5693 5690 5689 5689 5688 5684 5682 5683 5683 5684 5684 5681 5678 5678 5677 5678 5678 5678 5679 5680 5681 5684